Location: Kutna Hora
(49.9500°N, 15.2670°E)
Time: 15:33:13
(UTC+02:00)

ISS - Pass Details

Date: 28 May 2019
Orbit: 407 x 418 km, 51.6° (Epoch: 24 June)

Event Time Altitude Azimuth Distance (km) Brightness Sun altitude
Rises 22:30:17 0° 286° (WNW) 2,357 0.9 -11.6°
Reaches altitude 10° 22:32:23 10° 286° (WNW) 1,495 -0.2 -11.8°
Maximum altitude 22:35:45 83° 198° (SSW) 426 -3.8 -12.1°
Enters shadow 22:38:17 17° 112° (ESE) 1,164 -2.0 -12.3°
